Regional Weather Roundup
Issued by NWS

Home | Current Version | Previous Version | Text Only | Print | Product List | Glossary Off
Versions: 1 2 3 4 5 6 7 8 9 10 11 12 13 14 15 16 17 18 19 20 21 22 23 24 25 26 27 28 29 30 31 32 33 34 35 36 37 38 39 40 41 42 43 44 45 46 47 48 49 50

000
ASUS43 KOAX 260410
RWRNE

WEATHER ROUNDUP FOR NEBRASKA
NATIONAL WEATHER SERVICE OMAHA NE
1100 PM CDT TUE APR 25 2017

NOTES: SATELLITE DATA IS BEING USED TO AUGMENT CLOUD COVER ABOVE
       12000 FEET.
       "FAIR" INDICATES FEW OR NO CLOUDS BELOW 12,000 FEET WITH NO
       SIGNIFICANT WEATHER AND/OR OBSTRUCTIONS TO VISIBILITY.

  * THESE STATIONS DO NOT REPORT WEATHER SUCH AS RAIN...SNOW OR FOG.

NEZ001>004-019>022-054>056-260500-
NEBRASKA PANHANDLE

CITY           SKY/WX    TMP DP  RH WIND       PRES   REMARKS
SCOTTSBLUFF    CLOUDY    32  24  72 N9        29.89R WCI  24
ALLIANCE       CLOUDY    30  24  78 N16       29.85R WCI  19
CHADRON        CLOUDY    29  25  85 N10       29.91R WCI  20
KIMBALL        CLOUDY    32  32 100 N13       29.85R WCI  22
SIDNEY         CLOUDY    32  29  88 N10       29.84R WCI  24
$$

NEZ057>060-069>072-079>082-260500-
SOUTHWEST NEBRASKA

CITY           SKY/WX    TMP DP  RH WIND       PRES   REMARKS
NORTH PLATTE   CLOUDY    36  29  75 N13       29.79R WCI  27
IMPERIAL       CLOUDY    37  32  82 N15       29.80R WCI  28
LEXINGTON      CLOUDY    37  32  84 N21       29.76R WCI  26
MCCOOK         CLOUDY    40  33  76 N20       29.77R WCI  30
OGALLALA       CLOUDY    37  30  77 N15G21    29.83R WCI  27
$$

NEZ005>010-023>029-035>040-094-260500-
NORTH CENTRAL NEBRASKA

CITY           SKY/WX    TMP DP  RH WIND       PRES   REMARKS
VALENTINE      CLOUDY    32  25  75 N17G24    29.83R WCI  21
AINSWORTH      CLOUDY    32  31  94 N18G24    29.80S WCI  20
BROKEN BOW     CLOUDY    35  31  85 N21G29    29.75R WCI  24
O`NEILL        CLOUDY    35  32  88 N21       29.76R WCI  24
ORD            CLOUDY    37  32  82 N22G29    29.72F WCI  26
THEDFORD       CLOUDY    33  29  85 N16       29.81R WCI  22
$$

NEZ041-046>049-061>064-073>077-083>087-260500-
SOUTH CENTRAL NEBRASKA

CITY           SKY/WX    TMP DP  RH WIND       PRES   REMARKS
GRAND ISLAND   CLOUDY    38  35  89 N18       29.71R WCI  28
AURORA         CLOUDY    38  35  87 N18       29.69R WCI  29
HASTINGS       CLOUDY    39  34  82 N21       29.70R WCI  29
HEBRON         CLOUDY    42  35  79 N13G22    29.67R
HOLDREGE       CLOUDY    37  33  85 N18G25    29.73R WCI  27
KEARNEY *      CLOUDY    37  30  75 N16G28    29.73R WCI  28
YORK           CLOUDY    39  36  87 N18G28    29.67R WCI  30
$$

NEZ011>018-030>034-042>045-260500-
NORTHEAST NEBRASKA

CITY           SKY/WX    TMP DP  RH WIND       PRES   REMARKS
NORFOLK        CLOUDY    36  32  85 N24G30    29.67F WCI  24
ALBION         CLOUDY    37  34  87 N18G24    29.70S WCI  27
BLAIR          CLOUDY    42  40  91 NW17      29.60S
FREMONT        CLOUDY    40  39  98 NW14G20   29.65R WCI  32
TEKAMAH        LGT RAIN  41  38  89 NW20      29.63S
WAYNE          CLOUDY    37  37  99 NW18G29   29.67S WCI  27
$$

NEZ050>053-065>068-078-088>093-260500-
SOUTHEAST NEBRASKA

CITY           SKY/WX    TMP DP  RH WIND       PRES   REMARKS
LINCOLN        CLOUDY    42  38  85 N17       29.65R
OMAHA EPPLEY   CLOUDY    44  40  85 N13       29.61R
BEATRICE       CLOUDY    42  40  91 N21       29.64R
FALLS CITY     LGT RAIN  46  42  86 N14G26    29.56F
NEBRASKA CITY  CLOUDY    44  40  86 N16       29.60R
PLATTSMOUTH    DRIZZLE   43  40  88 NW13G20   29.60R
$$

NEZ044-045-051>053-067-260500-
OMAHA AREA

CITY           SKY/WX    TMP DP  RH WIND       PRES   REMARKS
OMAHA EPPLEY   CLOUDY    44  40  85 N13       29.61R
BLAIR          CLOUDY    42  40  91 NW17      29.60S
FREMONT        CLOUDY    40  39  98 NW14G20   29.65R WCI  32
MILLARD        CLOUDY    45  42  88 NW13G20   29.62R
OFFUTT AFB     CLOUDY    43  41  93 NW15G23   29.59S
PLATTSMOUTH    DRIZZLE   43  40  88 NW13G20   29.60R
WAHOO          CLOUDY    40  37  89 N25G32    29.63S WCI  29
$$




USA.gov is the U.S. government's official web portal to all federal, state and local government web resources and services.